Location: Mascot Post Office (historical)
(40.2645°N, 99.5462°W)
Time: 17:17:27
(UTC+00:00)

Meteor 1-5 Rocket - Pass Details

Date: 14 July 2020
Orbit: 790 x 915 km, 81.2° (Epoch: 05 August)

Event Time Altitude Azimuth Distance (km) Brightness Sun altitude
Exits shadow 08:43:59 48° 209° (SSW) 1,119 4.4 -22.2°
Maximum altitude 08:45:35 74° 280° (W) 906 4.2 -22.0°
Drops below altitude 10° 08:51:26 10° 6° (N) 2,565 7.6 -21.4°
Sets 08:53:57 0° 8° (N) 3,524 8.6 -21.2°
